DW8052 Weather Reports


time (UTC)temp
F
wind
direction
speed
knots
gust
knots
rain 1hr
in
rain 24hr
in
rain mn
in
humidity
%
barometer
mb
20260506112206 64 303 6.1 7.0 0.00 0.00 0.00 79 1015.6
20260506111706 64 305 6.1 7.0 0.00 0.00 0.00 79 1015.7
20260506111206 64 304 6.1 7.0 0.00 0.00 0.00 79 1015.8
20260506110706 64 308 6.1 7.0 0.00 0.00 0.00 79 1015.7
20260506110206 64 302 5.2 5.2 0.00 0.00 0.00 78 1015.9
20260506105705 64 302 5.2 5.2 0.00 0.00 0.00 78 1015.7
20260506104706 64 319 5.2 5.2 0.00 0.00 0.00 79 1015.7
20260506104206 65 331 4.3 5.2 0.00 0.00 0.00 79 1015.7
20260506103706 65 331 4.3 5.2 0.00 0.00 0.00 79 1015.7
20260506103206 65 321 4.3 5.2 0.00 0.00 0.00 79 1015.7
20260506102706 64 321 4.3 6.1 0.00 0.00 0.00 79 1015.7
20260506101705 64 317 4.3 4.3 0.00 0.00 0.00 78 1015.9
20260506101206 65 359 2.6 2.6 0.00 0.00 0.00 77 1015.8
20260506100206 65 359 2.6 2.6 0.00 0.00 0.00 76 1015.9
20260506095706 65 359 4.3 4.3 0.00 0.00 0.00 76 1015.8
20260506095206 65 359 2.6 2.6 0.00 0.00 0.00 76 1015.9
20260506094706 65 359 2.6 2.6 0.00 0.00 0.00 76 1015.9
20260506094206 65 359 1.7 5.2 0.00 0.00 0.00 76 1015.8
20260506093706 65 2 3.5 5.2 0.00 0.00 0.00 76 1015.8
20260506093206 66 2 2.6 4.3 0.00 0.00 0.00 76 1016.0
20260506092706 66 0 3.5 5.2 0.00 0.00 0.00 76 1015.9
20260506092206 66 4 3.5 4.3 0.00 0.00 0.00 76 1015.8
20260506091706 65 5 4.3 5.2 0.00 0.00 0.00 76 1015.9
20260506091205 65 3 4.3 5.2 0.00 0.00 0.00 76 1015.8
20260506090706 65 5 2.6 5.2 0.00 0.00 0.00 76 1016.0
20260506085205 65 31 4.3 5.2 0.00 0.00 0.00 76 1016.2
20260506084206 65 32 4.3 5.2 0.00 0.00 0.00 77 1016.1
20260506083706 65 30 4.3 5.2 0.00 0.00 0.00 77 1016.2
20260506083205 66 26 3.5 5.2 0.00 0.00 0.00 76 1016.3
20260506082706 66 37 2.6 4.3 0.00 0.00 0.00 76 1016.0
20260506082206 66 39 2.6 4.3 0.00 0.00 0.00 75 1016.1
20260506081206 65 51 3.5 5.2 0.00 0.00 0.00 75 1016.3
20260506080706 66 42 4.3 4.3 0.00 0.00 0.00 75 1016.0
20260506080206 66 44 4.3 5.2 0.00 0.00 0.00 75 1015.9
20260506073205 66 57 7.0 8.7 0.00 0.00 0.00 73 1015.9
20260506072706 66 65 7.0 7.8 0.00 0.00 0.00 72 1015.8
20260506072206 66 61 7.0 8.7 0.00 0.00 0.00 72 1016.0
20260506071706 66 53 7.0 7.8 0.00 0.00 0.00 71 1015.8
20260506071206 67 59 7.0 10.4 0.00 0.00 0.00 71 1016.0
20260506070706 67 63 7.8 10.4 0.00 0.00 0.00 71 1015.8
20260506070206 67 63 7.8 10.4 0.00 0.00 0.00 70 1015.7
20260506061706 69 71 6.1 7.8 0.00 0.00 0.00 64 1016.4
20260506061206 69 84 4.3 6.1 0.00 0.00 0.00 63 1016.2
20260506060706 70 74 5.2 6.1 0.00 0.00 0.00 62 1016.2
20260506060205 70 79 4.3 5.2 0.00 0.00 0.00 63 1016.2
20260506051205 69 105 4.3 6.1 0.00 0.00 0.00 65 1016.5
20260506050706 69 120 5.2 6.1 0.00 0.00 0.00 65 1016.7
20260506050206 69 110 5.2 6.1 0.00 0.00 0.00 65 1016.6
20260506044706 69 110 5.2 6.1 0.00 0.00 0.00 64 1017.0
20260506044206 69 117 4.3 6.1 0.00 0.00 0.00 65 1016.9
20260506043705 69 121 6.1 7.8 0.00 0.00 0.00 64 1017.0
20260506043206 69 119 6.1 7.8 0.00 0.00 0.00 64 1016.9
20260506042705 69 125 6.1 7.8 0.00 0.00 0.00 63 1017.0
20260506042205 69 120 5.2 8.7 0.00 0.00 0.00 63 1017.0
20260506041706 70 123 6.1 7.8 0.00 0.00 0.00 61 1017.1
20260506041206 70 119 7.0 7.8 0.00 0.00 0.00 61 1017.1
20260506040706 70 109 5.2 6.1 0.00 0.00 0.00 60 1017.3
20260506040205 70 127 5.2 7.8 0.00 0.00 0.00 60 1017.3
20260506035705 70 132 5.2 7.0 0.00 0.00 0.00 61 1017.1
20260506035205 70 118 6.1 7.8 0.00 0.00 0.00 60 1017.3
20260506034705 70 117 6.1 7.8 0.00 0.00 0.00 60 1017.5
20260506034206 70 116 6.1 8.7 0.00 0.00 0.00 60 1017.5
20260506033705 70 124 7.0 10.4 0.00 0.00 0.00 59 1017.7
20260506032706 71 120 7.0 10.4 0.00 0.00 0.00 59 1017.6
20260506032205 71 120 6.1 8.7 0.00 0.00 0.00 59 1017.8
20260506031705 72 122 7.8 10.4 0.00 0.00 0.00 57 1017.9
20260506031205 72 119 6.1 7.8 0.00 0.00 0.00 56 1018.0
20260506030705 72 142 5.2 8.7 0.00 0.00 0.00 58 1018.0
20260506030205 72 101 4.3 7.0 0.00 0.00 0.00 59 1018.0
20260506025705 71 145 4.3 7.0 0.00 0.00 0.00 61 1018.1
20260506025205 70 133 5.2 8.7 0.00 0.00 0.00 61 1018.3
20260506024705 69 152 6.1 8.7 0.00 0.00 0.00 63 1018.3
20260506024205 69 122 3.5 8.7 0.00 0.00 0.00 63 1018.3
20260506023205 70 124 7.8 10.4 0.00 0.00 0.00 61 1018.5
20260506022705 70 129 7.8 11.3 0.00 0.00 0.00 60 1018.7
20260506022206 71 129 7.8 10.4 0.00 0.00 0.00 58 1018.7
20260506021705 71 123 7.8 10.4 0.00 0.00 0.00 56 1018.8
20260506021205 72 130 7.0 12.2 0.00 0.00 0.00 55 1018.8
20260506020705 73 136 8.7 11.3 0.00 0.00 0.00 55 1019.1
20260506020205 73 142 7.8 11.3 0.00 0.00 0.00 55 1018.9
20260506015705 73 148 5.2 10.4 0.00 0.00 0.00 57 1019.0
20260506015205 72 131 6.1 11.3 0.00 0.00 0.00 57 1019.2
20260506014705 72 134 7.0 10.4 0.00 0.00 0.00 57 1019.2
20260506014205 72 133 7.8 10.4 0.00 0.00 0.00 56 1019.3
20260506013705 73 124 7.8 10.4 0.00 0.00 0.00 55 1019.3
20260506013205 73 131 8.7 10.4 0.00 0.00 0.00 54 1019.5
20260506012705 73 134 5.2 10.4 0.00 0.00 0.00 55 1019.5
20260506012205 72 135 1.7 6.1 0.00 0.00 0.00 56 1019.8
20260506011705 71 108 2.6 4.3 0.00 0.00 0.00 56 1019.8
20260506011205 71 98 2.6 4.3 0.00 0.00 0.00 57 1019.9
20260506010705 70 78 2.6 4.3 0.00 0.00 0.00 59 1019.9
20260506010205 68 75 1.7 4.3 0.00 0.00 0.00 60 1020.1
20260506005705 67 74 2.6 4.3 0.00 0.00 0.00 60 1020.0
20260506005205 67 52 3.5 5.2 0.00 0.00 0.00 59 1020.1
20260506004705 69 43 2.6 4.3 0.00 0.00 0.00 57 1020.2
20260506004205 69 38 2.6 4.3 0.00 0.00 0.00 57 1020.2
20260506003705 69 16 2.6 4.3 0.00 0.00 0.00 56 1020.2
20260506003204 69 40 2.6 5.2 0.00 0.00 0.00 55 1020.1
20260506002205 69 359 0.9 2.6 0.00 0.00 0.00 57 1020.2
20260506001705 69 299 1.7 2.6 0.00 0.00 0.00 57 1020.1
20260506001204 68 349 2.6 4.3 0.00 0.00 0.00 57 1020.2
20260506000705 68 353 1.7 4.3 0.00 0.00 0.00 59 1020.4
20260506000205 67 322 2.6 4.3 0.00 0.00 0.00 59 1020.2
20260505235705 67 335 2.6 5.2 0.00 0.00 0.00 60 1020.5
20260505235205 66 350 0.9 5.2 0.00 0.00 0.00 60 1020.5
20260505234704 66 325 3.5 6.1 0.00 0.00 0.00 61 1020.5
20260505234205 66 322 3.5 6.1 0.00 0.00 0.00 61 1020.5
20260505233704 65 326 2.6 5.2 0.00 0.00 0.00 63 1020.5
20260505232705 65 333 2.6 4.3 0.00 0.00 0.00 64 1020.5
20260505232205 64 322 2.6 4.3 0.00 0.00 0.00 66 1020.8
20260505231205 62 321 2.6 4.3 0.00 0.00 0.00 67 1020.6
20260505230705 62 298 4.3 5.2 0.00 0.00 0.00 67 1020.6
20260505230205 61 310 4.3 5.2 0.00 0.00 0.00 68 1020.4
20260505225704 60 298 4.3 5.2 0.00 0.00 0.00 69 1020.5
20260505225205 60 279 4.3 6.1 0.00 0.00 0.00 69 1020.4
20260505224705 59 290 5.2 6.1 0.00 0.00 0.00 69 1020.6
20260505224205 59 300 5.2 7.0 0.00 0.00 0.00 69 1020.5
20260505223705 59 308 6.1 7.8 0.00 0.00 0.00 69 1020.7
20260505223205 59 315 6.1 7.8 0.00 0.00 0.00 70 1020.8
20260505222704 59 324 5.2 6.1 0.00 0.00 0.00 72 1020.6
20260505222204 58 322 5.2 6.1 0.00 0.00 0.00 73 1020.7
20260505221705 57 319 5.2 6.1 0.00 0.00 0.00 73 1020.6
20260505221204 57 292 5.2 5.2 0.00 0.00 0.00 74 1020.5
20260505220705 56 292 4.3 5.2 0.00 0.00 0.00 75 1020.6
20260505220205 56 287 5.2 6.1 0.00 0.00 0.00 75 1020.7
20260505215204 55 300 5.2 7.0 0.00 0.00 0.00 76 1020.4
20260505214705 54 305 6.1 7.8 0.00 0.00 0.00 76 1020.5
20260505214204 54 311 7.0 7.8 0.00 0.00 0.00 76 1020.5
20260505213704 54 297 6.1 7.0 0.00 0.00 0.00 77 1020.5
20260505213205 54 294 6.1 7.8 0.00 0.00 0.00 77 1020.4
20260505212704 54 295 6.1 7.8 0.00 0.00 0.00 78 1020.6
20260505212204 53 300 7.0 7.8 0.00 0.00 0.00 78 1020.5
20260505211704 53 303 7.8 8.7 0.00 0.00 0.00 78 1020.4
20260505211204 53 309 7.8 10.4 0.00 0.00 0.00 77 1020.6
20260505210704 53 311 7.8 10.4 0.00 0.00 0.00 76 1020.3
20260505210205 53 309 8.7 10.4 0.00 0.00 0.00 75 1020.3
20260505205704 54 312 8.7 10.4 0.00 0.00 0.00 75 1020.3
20260505204705 54 313 7.8 8.7 0.00 0.00 0.00 75 1020.3
20260505204205 54 307 7.8 8.7 0.00 0.00 0.00 75 1020.3
20260505203704 54 308 7.8 8.7 0.00 0.00 0.00 75 1020.2
20260505203204 54 308 7.8 8.7 0.00 0.00 0.00 75 1020.2
20260505202705 54 306 7.0 8.7 0.00 0.00 0.00 76 1020.1
20260505202205 54 315 7.0 7.8 0.00 0.00 0.00 75 1020.1
20260505201704 54 314 7.0 7.8 0.00 0.00 0.00 75 1020.2
20260505201205 55 303 7.0 7.8 0.00 0.00 0.00 75 1020.1
20260505200205 55 326 6.1 7.8 0.00 0.00 0.00 74 1020.0
20260505195205 55 286 6.1 7.0 0.00 0.00 0.00 75 1020.1
20260505194704 54 293 7.0 7.8 0.00 0.00 0.00 75 1019.9
20260505194204 55 299 7.8 8.7 0.00 0.00 0.00 75 1019.7
20260505192705 54 284 7.0 7.8 0.00 0.00 0.00 74 1019.8
20260505192205 54 283 7.0 7.0 0.00 0.00 0.00 74 1019.8
20260505191704 55 286 6.1 7.8 0.00 0.00 0.00 74 1020.1
20260505191205 55 291 7.0 8.7 0.00 0.00 0.00 73 1019.9
20260505190705 55 303 7.8 10.4 0.00 0.00 0.00 73 1019.9
20260505190204 55 317 9.6 11.3 0.00 0.00 0.00 72 1020.0
20260505185704 55 316 8.7 10.4 0.00 0.00 0.00 71 1020.1
20260505185204 55 321 8.7 10.4 0.00 0.00 0.00 71 1020.1
20260505184705 55 315 7.8 8.7 0.00 0.00 0.00 70 1020.0
20260505184204 56 313 7.8 8.7 0.00 0.00 0.00 70 1020.0
20260505183704 55 318 7.8 8.7 0.00 0.00 0.00 69 1019.9
20260505183204 56 317 7.8 8.7 0.00 0.00 0.00 69 1020.1
20260505182705 56 321 7.8 8.7 0.00 0.00 0.00 68 1020.0
20260505181704 58 311 5.2 5.2 0.00 0.00 0.00 66 1019.9
20260505181204 58 306 3.5 4.3 0.00 0.00 0.00 66 1020.0
20260505180704 59 241 4.3 5.2 0.00 0.00 0.00 66 1019.8
20260505180204 58 223 4.3 5.2 0.00 0.00 0.00 67 1019.8
20260505175704 58 227 5.2 5.2 0.00 0.00 0.00 68 1019.9
20260505175204 58 286 4.3 4.3 0.00 0.00 0.00 68 1019.9
20260505174704 58 286 2.6 4.3 0.00 0.00 0.00 67 1019.7
20260505174204 58 286 4.3 4.3 0.00 0.00 0.00 67 1020.0
20260505173205 58 286 2.6 4.3 0.00 0.00 0.00 66 1019.9
20260505172704 58 286 2.6 4.3 0.00 0.00 0.00 67 1019.9
20260505172204 58 292 4.3 5.2 0.00 0.00 0.00 66 1019.9
20260505171704 58 292 4.3 4.3 0.00 0.00 0.00 66 1020.0
20260505171205 58 269 4.3 5.2 0.00 0.00 0.00 66 1019.9
20260505170206 58 277 5.2 5.2 0.00 0.00 0.00 65 1020.0
20260505165719 58 282 5.2 6.1 0.00 0.00 0.00 65 1020.0
20260505165219 58 289 5.2 6.1 0.00 0.00 0.00 65 1019.9
20260505164719 58 285 4.3 5.2 0.00 0.00 0.00 65 1020.2
20260505164219 58 297 4.3 4.3 0.00 0.00 0.00 65 1020.2
20260505163719 58 297 2.6 2.6 0.00 0.00 0.00 65 1020.1
20260505163219 58 297 3.5 4.3 0.00 0.00 0.00 64 1020.5
20260505162719 58 297 3.5 4.3 0.00 0.00 0.00 64 1020.1
20260505162219 59 297 3.5 5.2 0.00 0.00 0.00 63 1020.1
20260505161719 59 292 3.5 4.3 0.00 0.00 0.00 62 1020.2
20260505161218 60 271 2.6 2.6 0.00 0.00 0.00 61 1020.2
20260505160719 60 271 2.6 4.3 0.00 0.00 0.00 61 1020.2
20260505160219 60 261 4.3 5.2 0.00 0.00 0.00 61 1020.4
20260505153219 61 237 7.8 10.4 0.00 0.00 0.00 58 1020.5
20260505152719 61 236 7.0 10.4 0.00 0.00 0.00 58 1020.6
20260505152219 61 239 7.8 10.4 0.00 0.00 0.00 58 1020.7
20260505151719 61 236 7.8 10.4 0.00 0.00 0.00 57 1020.5
20260505151219 61 234 7.8 10.4 0.00 0.00 0.00 57 1020.6
20260505150219 61 235 8.7 10.4 0.00 0.00 0.00 58 1020.7
20260505130219 61 237 9.6 12.2 0.00 0.00 0.00 60 1020.8
20260505124219 61 240 8.7 12.2 0.00 0.00 0.00 60 1021.0
20260505123719 61 241 9.6 12.2 0.00 0.00 0.00 61 1021.0
20260505123218 61 248 7.8 10.4 0.00 0.00 0.00 61 1021.0
20260505122718 61 241 8.7 10.4 0.00 0.00 0.00 62 1021.0
20260505121719 61 239 8.7 11.3 0.00 0.00 0.00 63 1021.1
20260505121219 62 233 7.8 10.4 0.00 0.00 0.00 64 1021.0
20260505120719 62 235 8.7 10.4 0.00 0.00 0.00 64 1020.9
20260505120219 62 231 9.6 12.2 0.00 0.00 0.00 64 1021.2
20260505115719 62 235 10.4 13.9 0.00 0.00 0.00 63 1021.0
20260505115219 62 239 10.4 12.2 0.00 0.00 0.00 63 1021.1
20260505114718 62 237 11.3 13.0 0.00 0.00 0.00 64 1021.1
20260505114218 62 235 10.4 12.2 0.00 0.00 0.00 66 1021.2
20260505113718 62 237 8.7 10.4 0.00 0.00 0.00 67 1021.1
20260505113218 62 243 7.8 10.4 0.00 0.00 0.00 68 1021.3
20260505112718 62 244 7.0 8.7 0.00 0.00 0.00 68 1021.2